Time,TemperatureF,DewpointF,PressureIn,WindDirection,WindDirectionDegrees,WindSpeedMPH,WindSpeedGustMPH,Humidity,HourlyPrecipIn,Conditions,Clouds,dailyrainin,SolarRadiationWatts/m^2,SoftwareType,DateUTC
2013-07-31 00:22:00,71.0,40.0,30.12,SW,221,13.0,19.0,32,0.00,,,0.00,0.000000,,2013-07-31 07:22:00,
2013-07-31 00:32:00,71.0,40.0,30.12,SW,221,13.0,19.0,32,0.00,,,0.00,0.000000,,2013-07-31 07:32:00,
2013-07-31 00:43:00,71.0,40.0,30.12,SW,221,13.0,19.0,32,0.00,,,0.00,0.000000,,2013-07-31 07:43:00,
2013-07-31 00:52:00,71.0,40.0,30.12,SW,221,13.0,19.0,32,0.00,,,0.00,0.000000,,2013-07-31 07:52:00,
2013-07-31 01:32:00,69.0,42.0,30.11,SW,221,14.0,19.0,38,0.00,,,0.00,0.000000,,2013-07-31 08:32:00,
2013-07-31 01:42:00,69.0,42.0,30.11,SW,221,14.0,19.0,38,0.00,,,0.00,0.000000,,2013-07-31 08:42:00,
2013-07-31 01:53:00,69.0,42.0,30.11,SW,221,14.0,19.0,38,0.00,,,0.00,0.000000,,2013-07-31 08:53:00,
2013-07-31 02:32:00,69.0,42.0,30.10,SW,224,11.0,19.0,38,0.00,,,0.00,0.000000,,2013-07-31 09:32:00,
2013-07-31 02:43:00,69.0,42.0,30.10,SW,224,11.0,19.0,38,0.00,,,0.00,0.000000,,2013-07-31 09:43:00,
2013-07-31 02:52:00,69.0,42.0,30.10,SW,224,11.0,19.0,38,0.00,,,0.00,0.000000,,2013-07-31 09:52:00,
2013-07-31 03:32:00,68.0,44.0,30.09,WNW,282,9.0,17.0,42,0.00,,,0.00,0.000000,,2013-07-31 10:32:00,
2013-07-31 03:44:00,68.0,44.0,30.09,WNW,282,9.0,17.0,42,0.00,,,0.00,0.000000,,2013-07-31 10:44:00,
2013-07-31 03:52:00,68.0,44.0,30.09,WNW,282,9.0,17.0,42,0.00,,,0.00,0.000000,,2013-07-31 10:52:00,
2013-07-31 04:33:00,69.0,44.0,30.09,WSW,258,6.0,14.0,40,0.00,,,0.00,0.000000,,2013-07-31 11:33:00,
2013-07-31 04:43:00,69.0,44.0,30.09,WSW,258,6.0,14.0,40,0.00,,,0.00,0.000000,,2013-07-31 11:43:00,
2013-07-31 04:52:00,69.0,44.0,30.09,WSW,258,6.0,14.0,40,0.00,,,0.00,0.000000,,2013-07-31 11:52:00,
2013-07-31 05:32:00,66.0,42.0,30.09,West,267,5.0,14.0,41,0.00,,,0.00,0.000000,,2013-07-31 12:32:00,
2013-07-31 05:43:00,66.0,42.0,30.09,West,267,5.0,14.0,41,0.00,,,0.00,0.000000,,2013-07-31 12:43:00,
2013-07-31 05:52:00,66.0,42.0,30.09,West,267,5.0,14.0,41,0.00,,,0.00,0.000000,,2013-07-31 12:52:00,
2013-07-31 06:33:00,64.0,43.0,30.09,WSW,252,7.0,13.0,46,0.00,,,0.00,0.000000,,2013-07-31 13:33:00,
2013-07-31 06:43:00,64.0,43.0,30.09,WSW,252,7.0,13.0,46,0.00,,,0.00,0.000000,,2013-07-31 13:43:00,
2013-07-31 06:53:00,64.0,43.0,30.09,WSW,252,7.0,13.0,46,0.00,,,0.00,0.000000,,2013-07-31 13:53:00,
2013-07-31 08:22:00,75.0,43.0,30.12,East,88,5.0,13.0,32,0.00,,,0.00,261.000000,,2013-07-31 15:22:00,
2013-07-31 08:52:00,75.0,43.0,30.12,East,88,5.0,13.0,32,0.00,,,0.00,261.000000,,2013-07-31 15:52:00,
2013-07-31 11:22:00,93.0,33.0,30.10,SSE,166,8.0,13.0,12,0.00,,,0.00,911.000000,,2013-07-31 18:22:00,
2013-07-31 11:32:00,93.0,33.0,30.10,SSE,166,8.0,13.0,12,0.00,,,0.00,911.000000,,2013-07-31 18:32:00,
2013-07-31 11:43:00,93.0,33.0,30.10,SSE,166,8.0,13.0,12,0.00,,,0.00,911.000000,,2013-07-31 18:43:00,
2013-07-31 11:52:00,93.0,33.0,30.10,SSE,166,8.0,13.0,12,0.00,,,0.00,911.000000,,2013-07-31 18:52:00,
2013-07-31 12:22:00,93.0,33.0,30.09,SSE,154,7.0,15.0,12,0.00,,,0.00,1037.000000,,2013-07-31 19:22:00,
2013-07-31 12:32:00,93.0,33.0,30.09,SSE,154,7.0,15.0,12,0.00,,,0.00,1037.000000,,2013-07-31 19:32:00,
2013-07-31 12:43:00,93.0,33.0,30.09,SSE,154,7.0,15.0,12,0.00,,,0.00,1037.000000,,2013-07-31 19:43:00,
2013-07-31 12:52:00,93.0,33.0,30.09,SSE,154,7.0,15.0,12,0.00,,,0.00,1037.000000,,2013-07-31 19:52:00,
2013-07-31 13:22:00,94.0,34.0,30.07,SSW,209,12.0,64.0,12,0.00,,,0.00,1116.000000,,2013-07-31 20:22:00,
2013-07-31 13:42:00,94.0,34.0,30.07,SSW,209,12.0,64.0,12,0.00,,,0.00,1116.000000,,2013-07-31 20:42:00,
2013-07-31 13:52:00,94.0,34.0,30.07,SSW,209,12.0,64.0,12,0.00,,,0.00,1116.000000,,2013-07-31 20:52:00,
2013-07-31 14:22:00,95.0,36.0,30.06,SSW,213,15.0,26.0,13,0.00,,,0.00,1127.000000,,2013-07-31 21:22:00,
2013-07-31 14:32:00,95.0,36.0,30.06,SSW,213,15.0,26.0,13,0.00,,,0.00,1127.000000,,2013-07-31 21:32:00,
2013-07-31 14:42:00,95.0,36.0,30.06,SSW,213,15.0,26.0,13,0.00,,,0.00,1127.000000,,2013-07-31 21:42:00,
2013-07-31 14:53:00,95.0,36.0,30.06,SSW,213,15.0,26.0,13,0.00,,,0.00,1127.000000,,2013-07-31 21:53:00,
2013-07-31 15:33:00,94.0,38.0,30.05,SW,222,18.0,27.0,14,0.00,,,0.00,1081.000000,,2013-07-31 22:33:00,
2013-07-31 15:42:00,94.0,38.0,30.05,SW,222,18.0,27.0,14,0.00,,,0.00,1081.000000,,2013-07-31 22:42:00,
2013-07-31 15:53:00,94.0,38.0,30.05,SW,222,18.0,27.0,14,0.00,,,0.00,1081.000000,,2013-07-31 22:53:00,
2013-07-31 16:22:00,90.0,33.0,30.03,SW,221,22.0,30.0,13,0.00,,,0.00,957.000000,,2013-07-31 23:22:00,
2013-07-31 16:32:00,90.0,33.0,30.03,SW,221,22.0,30.0,13,0.00,,,0.00,957.000000,,2013-07-31 23:32:00,
2013-07-31 16:42:00,90.0,33.0,30.03,SW,221,22.0,30.0,13,0.00,,,0.00,957.000000,,2013-07-31 23:42:00,
2013-07-31 16:52:00,90.0,33.0,30.03,SW,221,22.0,30.0,13,0.00,,,0.00,957.000000,,2013-07-31 23:52:00,
2013-07-31 17:22:00,88.0,36.0,30.04,SW,231,17.0,31.0,16,0.00,,,0.00,774.000000,,2013-08-01 00:22:00,
2013-07-31 17:32:00,88.0,36.0,30.04,SW,231,17.0,31.0,16,0.00,,,0.00,774.000000,,2013-08-01 00:32:00,
2013-07-31 17:43:00,88.0,36.0,30.04,SW,231,17.0,31.0,16,0.00,,,0.00,774.000000,,2013-08-01 00:43:00,
2013-07-31 17:52:00,88.0,36.0,30.04,SW,231,17.0,31.0,16,0.00,,,0.00,774.000000,,2013-08-01 00:52:00,
2013-07-31 18:22:00,87.0,38.0,30.03,SW,214,15.0,25.0,18,0.00,,,0.00,552.000000,,2013-08-01 01:22:00,
2013-07-31 18:32:00,87.0,38.0,30.03,SW,214,15.0,25.0,18,0.00,,,0.00,552.000000,,2013-08-01 01:32:00,
2013-07-31 18:42:00,87.0,38.0,30.03,SW,214,15.0,25.0,18,0.00,,,0.00,552.000000,,2013-08-01 01:42:00,
2013-07-31 18:53:00,87.0,38.0,30.03,SW,214,15.0,25.0,18,0.00,,,0.00,552.000000,,2013-08-01 01:53:00,
2013-07-31 19:22:00,85.0,30.0,30.02,SW,226,12.0,25.0,14,0.00,,,0.00,297.000000,,2013-08-01 02:22:00,
2013-07-31 19:32:00,85.0,30.0,30.02,SW,226,12.0,25.0,14,0.00,,,0.00,297.000000,,2013-08-01 02:32:00,
2013-07-31 19:43:00,85.0,30.0,30.02,SW,226,12.0,25.0,14,0.00,,,0.00,297.000000,,2013-08-01 02:43:00,
2013-07-31 19:52:00,85.0,30.0,30.02,SW,226,12.0,25.0,14,0.00,,,0.00,297.000000,,2013-08-01 02:52:00,
2013-07-31 20:22:00,78.0,31.0,30.03,SW,216,9.0,22.0,18,0.00,,,0.00,77.000000,,2013-08-01 03:22:00,
2013-07-31 20:32:00,78.0,31.0,30.03,SW,216,9.0,22.0,18,0.00,,,0.00,77.000000,,2013-08-01 03:32:00,
2013-07-31 20:43:00,78.0,31.0,30.03,SW,216,9.0,22.0,18,0.00,,,0.00,77.000000,,2013-08-01 03:43:00,
2013-07-31 20:53:00,78.0,31.0,30.03,SW,216,9.0,22.0,18,0.00,,,0.00,77.000000,,2013-08-01 03:53:00,
2013-07-31 22:32:00,72.0,27.0,30.05,SW,231,11.0,18.0,19,0.00,,,0.00,0.000000,,2013-08-01 05:32:00,
2013-07-31 22:43:00,72.0,27.0,30.05,SW,231,11.0,18.0,19,0.00,,,0.00,0.000000,,2013-08-01 05:43:00,
2013-07-31 22:53:00,72.0,27.0,30.05,SW,231,11.0,18.0,19,0.00,,,0.00,0.000000,,2013-08-01 05:53:00,
2013-07-31 23:32:00,72.0,35.0,30.04,SW,227,10.0,17.0,26,0.00,,,0.00,0.000000,,2013-08-01 06:32:00,
2013-07-31 23:42:00,72.0,35.0,30.04,SW,227,10.0,17.0,26,0.00,,,0.00,0.000000,,2013-08-01 06:42:00,
2013-07-31 23:52:00,72.0,35.0,30.04,SW,227,10.0,17.0,26,0.00,,,0.00,0.000000,,2013-08-01 06:52:00,